| time (UTC) | temp F | wind direction | speed knots | gust knots | rain 1hr in | rain 24hr in | rain mn in | humidity % | barometer mb |
| 20260504214555 | 86 | 360 | 2.6 | 0.0 | 0.00 | 0.00 | 0.00 | 26 | 1003.5 |
| 20260504213050 | 86 | 360 | 1.7 | 0.0 | 0.00 | 0.00 | 0.00 | 27 | 1003.6 |
| 20260504211547 | 87 | 360 | 1.7 | 0.0 | 0.00 | 0.00 | 0.00 | 26 | 1003.8 |
| 20260504210049 | 85 | 360 | 2.6 | 0.0 | 0.00 | 0.00 | 0.00 | 26 | 1004.1 |
| 20260504204547 | 84 | 360 | 2.6 | 0.0 | 0.00 | 0.00 | 0.00 | 28 | 1004.3 |
| 20260504203052 | 83 | 360 | 3.5 | 0.0 | 0.00 | 0.00 | 0.00 | 28 | 1004.5 |
| 20260504201534 | 83 | 360 | 3.5 | 0.0 | 0.00 | 0.00 | 0.00 | 32 | 1004.7 |
| 20260504200032 | 82 | 360 | 3.5 | 0.0 | 0.00 | 0.00 | 0.00 | 31 | 1004.8 |
| 20260504194533 | 81 | 360 | 1.7 | 0.0 | 0.00 | 0.00 | 0.00 | 35 | 1005.0 |
| 20260504193025 | 79 | 360 | 2.6 | 0.0 | 0.00 | 0.00 | 0.00 | 40 | 1005.1 |
| 20260504191525 | 79 | 360 | 1.7 | 0.0 | 0.00 | 0.00 | 0.00 | 42 | 1005.3 |
| 20260504190018 | 77 | 360 | 1.7 | 0.0 | 0.00 | 0.00 | 0.00 | 44 | 1005.6 |
| 20260504184515 | 75 | 360 | 3.5 | 0.0 | 0.00 | 0.00 | 0.00 | 47 | 1005.7 |
| 20260504183012 | 74 | 360 | 3.5 | 0.0 | 0.00 | 0.00 | 0.00 | 48 | 1005.8 |
| 20260504181510 | 73 | 360 | 2.6 | 0.0 | 0.00 | 0.00 | 0.00 | 48 | 1005.9 |
| 20260504180008 | 72 | 360 | 2.6 | 0.0 | 0.00 | 0.00 | 0.00 | 49 | 1005.8 |
| 20260504174507 | 72 | 360 | 2.6 | 0.0 | 0.00 | 0.00 | 0.00 | 48 | 1006.0 |
| 20260504173005 | 71 | 360 | 2.6 | 0.0 | 0.00 | 0.00 | 0.00 | 50 | 1006.1 |
| 20260504171601 | 70 | 163 | 1.7 | 0.0 | 0.00 | 0.00 | 0.00 | 49 | 1006.2 |
| 20260504081606 | 57 | 360 | 0.9 | 0.0 | 0.00 | 0.00 | 0.00 | 68 | 1005.9 |
| 20260504044545 | 70 | 360 | 1.7 | 0.0 | 0.00 | 0.00 | 0.00 | 46 | 1005.9 |
| 20260504043041 | 72 | 360 | 0.9 | 0.0 | 0.00 | 0.00 | 0.00 | 45 | 1005.7 |
| 20260504041540 | 74 | 360 | 1.7 | 0.0 | 0.00 | 0.00 | 0.00 | 40 | 1005.6 |
| 20260504040040 | 73 | 360 | 2.6 | 0.0 | 0.00 | 0.00 | 0.00 | 40 | 1005.5 |
| 20260504034540 | 74 | 360 | 1.7 | 0.0 | 0.00 | 0.00 | 0.00 | 45 | 1005.5 |
| 20260504033040 | 76 | 360 | 1.7 | 0.0 | 0.00 | 0.00 | 0.00 | 41 | 1005.2 |
| 20260504031539 | 78 | 360 | 2.6 | 0.0 | 0.00 | 0.00 | 0.00 | 38 | 1005.2 |
| 20260504030042 | 80 | 360 | 0.9 | 0.0 | 0.00 | 0.00 | 0.00 | 32 | 1005.1 |
| 20260504024538 | 81 | 360 | 0.9 | 0.0 | 0.00 | 0.00 | 0.00 | 31 | 1005.0 |
| 20260504023037 | 81 | 360 | 0.9 | 0.0 | 0.00 | 0.00 | 0.00 | 30 | 1004.8 |
| 20260504021537 | 80 | 360 | 1.7 | 0.0 | 0.00 | 0.00 | 0.00 | 30 | 1004.8 |
| 20260504020037 | 81 | 360 | 2.6 | 0.0 | 0.00 | 0.00 | 0.00 | 29 | 1004.9 |
| 20260504014548 | 81 | 360 | 3.5 | 0.0 | 0.00 | 0.00 | 0.00 | 27 | 1004.9 |
| 20260504013040 | 82 | 360 | 3.5 | 0.0 | 0.00 | 0.00 | 0.00 | 28 | 1004.9 |
| 20260504011533 | 82 | 360 | 4.3 | 0.0 | 0.00 | 0.00 | 0.00 | 28 | 1005.0 |
| 20260504010031 | 83 | 360 | 3.5 | 0.0 | 0.00 | 0.00 | 0.00 | 27 | 1005.3 |
| 20260504004530 | 84 | 360 | 3.5 | 0.0 | 0.00 | 0.00 | 0.00 | 27 | 1005.6 |
| 20260504003028 | 84 | 360 | 3.5 | 0.0 | 0.00 | 0.00 | 0.00 | 26 | 1005.7 |
| 20260504001527 | 83 | 360 | 4.3 | 0.0 | 0.00 | 0.00 | 0.00 | 27 | 1005.8 |
| 20260504000038 | 85 | 360 | 2.6 | 0.0 | 0.00 | 0.00 | 0.00 | 25 | 1006.0 |
| 20260503234524 | 85 | 360 | 2.6 | 0.0 | 0.00 | 0.00 | 0.00 | 26 | 1006.2 |
| 20260503233024 | 85 | 360 | 2.6 | 0.0 | 0.00 | 0.00 | 0.00 | 26 | 1006.4 |
| 20260503231520 | 85 | 360 | 2.6 | 0.0 | 0.00 | 0.00 | 0.00 | 26 | 1006.6 |
| 20260503230018 | 85 | 360 | 3.5 | 0.0 | 0.00 | 0.00 | 0.00 | 25 | 1006.9 |
| 20260503224516 | 85 | 360 | 2.6 | 0.0 | 0.00 | 0.00 | 0.00 | 25 | 1007.2 |
| 20260503223013 | 86 | 360 | 0.9 | 0.0 | 0.00 | 0.00 | 0.00 | 25 | 1007.4 |
| 20260503221510 | 84 | 360 | 2.6 | 0.0 | 0.00 | 0.00 | 0.00 | 26 | 1007.7 |
| 20260503220009 | 84 | 360 | 1.7 | 0.0 | 0.00 | 0.00 | 0.00 | 26 | 1007.9 |